User: anonymous   Login
Location: Caltech
(34.1382°N, 118.1253°W)
Time: 17:02:26
(UTC-07:00)
Language:

Meteor 2-4 Rocket - Orbit

View from above orbital plane
View from above orbital plane
View from above satellite
View from above satellite

Ground track
Ground track

The orbit data is extracted from the following two-line orbital elements,

1 11289U 79021B   15180.52314775  .00000084  00000-0  38025-4 0  9993
2 11289 081.2461 145.2530 0076805 112.5207 248.4118 14.11505210869459
Epoch (UTC): 29 June 2015 12:33:19
Eccentricity: 0.0076805
inclination: 81.2461°
perigee height: 798 km
apogee height: 910 km
right ascension of ascending node: 145.2530°
argument of perigee: 112.5207°
revolutions per day: 14.11505210
mean anomaly at epoch: 248.4118°
orbit number at epoch: 86945

The dashed part of the orbit path shows where the satellite is in the earth's shadow,  

DLR